Wind_Speed
30 31 31 31 31 29 28 28 27 25 25 26 27 26 27 27 27 27 28 27 29 29 29 29 28 29 29 30 33 35 35 34 37 40 39 36 33 34 32 33 33 30 29 31 30
32 32 33 33 32 34 33 30 30 29 28 27 27 27 26 28 28 28 27 27 27 27 28 28 26 26 26 27 28 30 30 31 33 36 39 39 38 38 37 37 39 34 35 34 33
35 36 35 36 38 35 35 36 34 32 32 31 30 29 28 27 28 29 27 26 28 27 26 25 23 24 24 24 24 24 23 27 28 31 32 34 37 40 42 42 40 38 36 37 37
41 40 41 39 38 38 39 38 37 37 35 35 33 31 30 28 29 32 30 28 28 27 25 24 23 23 22 20 21 18 21 20 22 25 27 29 30 33 38 41 41 41 41 39 40
46 45 44 44 49 46 44 44 41 39 39 38 37 34 32 31 32 34 33 30 29 27 25 24 24 22 19 18 15 13 12 11 13 14 16 15 19 24 28 29 34 38 40 41 44
48 46 46 48 45 50 52 48 45 44 41 41 40 39 35 34 34 35 35 32 31 28 27 26 23 21 19 18 15 15 14 12 10 13 12 12 14 13 22 23 24 27 32 37 42
52 50 48 47 47 45 47 52 45 52 47 44 43 42 40 38 37 37 36 34 33 32 29 28 26 23 22 21 19 19 16 15 15 15 15 19 18 17 20 15 20 26 27 30 33
53 53 48 39 40 47 48 49 52 58 52 48 46 46 43 42 40 40 39 38 35 34 33 31 28 27 26 24 23 21 19 18 19 19 20 20 20 20 23 21 22 24 27 29 28
54 54 51 48 44 44 46 49 47 54 51 50 52 50 46 45 42 43 41 41 40 38 35 33 33 31 29 25 23 21 19 19 18 18 19 20 21 21 22 22 26 27 28 28 31
58 57 55 51 47 48 46 48 51 51 54 55 56 54 52 49 46 45 44 43 44 41 39 36 36 33 30 26 24 24 22 20 19 20 20 20 21 21 21 21 24 28 29 30 31
65 64 60 57 53 54 51 52 53 55 55 60 61 58 58 55 52 49 46 47 46 45 43 40 38 32 35 32 27 26 24 21 21 22 22 22 24 23 24 23 21 24 27 28 30
70 66 60 59 57 57 57 59 59 59 59 60 64 65 61 59 56 53 50 46 46 45 45 43 37 40 35 34 30 30 27 25 23 23 24 24 25 27 25 23 24 23 25 26 29
64 59 54 56 60 58 59 59 59 60 61 56 59 65 63 60 57 56 54 50 47 49 45 42 41 41 39 37 34 34 30 28 27 27 26 26 25 27 25 26 24 24 25 26 24
60 55 57 61 63 62 60 57 57 55 57 57 49 57 61 63 61 58 56 53 51 48 46 46 45 42 41 39 36 35 33 32 31 29 27 27 26 25 27 30 30 28 25 25 24
58 55 58 62 63 61 57 53 50 47 55 52 44 49 57 59 62 56 55 55 51 47 48 45 44 41 42 40 39 37 36 34 31 30 28 26 29 24 27 31 32 29 26 25 26
58 57 54 58 60 54 51 45 43 46 55 44 37 38 47 51 61 57 58 56 51 49 47 47 46 46 45 41 41 40 38 36 33 31 30 26 27 24 27 25 26 26 26 23 24
57 54 50 56 49 47 43 44 46 52 46 37 34 33 34 40 53 56 57 56 52 51 49 46 45 45 45 43 43 42 39 38 36 34 30 25 24 23 25 24 21 22 23 23 23
45 53 55 54 50 46 42 45 47 45 38 36 33 30 30 33 47 54 55 55 51 50 47 44 43 42 45 43 40 40 42 40 37 34 30 28 25 22 23 21 18 19 20 20 20
41 38 41 51 44 43 44 52 47 38 33 34 38 32 29 33 41 45 53 53 52 50 47 45 45 44 42 40 41 42 42 38 37 35 32 29 25 20 19 19 18 17 19 20 20
35 33 31 41 50 46 47 50 42 37 36 35 37 32 32 36 40 42 47 52 52 50 49 45 43 43 44 43 43 43 39 40 39 37 34 30 26 23 19 17 16 17 17 17 17
31 29 26 41 51 52 47 45 38 38 38 36 37 27 39 35 39 43 43 42 50 48 48 45 43 43 44 42 40 40 40 41 37 37 33 31 28 26 23 21 18 17 16 16 17
28 31 25 32 39 44 45 46 45 41 34 36 38 33 26 40 41 40 44 38 35 43 45 46 45 43 40 40 41 42 41 42 41 38 35 33 29 29 27 23 21 19 19 19 19
21 22 24 33 38 38 41 46 42 40 33 36 35 33 28 31 39 43 41 39 38 35 40 37 41 42 42 43 43 42 39 38 36 36 36 34 29 32 31 28 24 23 24 24 23
23 22 23 25 27 28 36 40 45 41 29 34 30 31 30 27 40 39 40 37 38 38 39 41 41 38 36 36 34 34 34 36 38 38 32 31 31 32 33 29 27 26 27 28 28
23 24 18 20 25 21 28 38 40 40 36 33 36 31 32 32 31 38 40 35 37 38 37 38 37 35 35 35 35 37 37 38 38 34 35 29 32 34 32 30 27 27 30 31 31
28 30 17 24 24 24 26 32 37 37 36 34 34 31 24 40 31 37 36 39 40 41 37 36 36 36 36 35 34 35 36 37 35 32 30 30 31 32 35 29 29 30 31 31 33
32 25 20 23 23 19 29 33 35 35 39 38 35 34 34 29 44 44 40 42 42 43 44 41 38 38 38 37 36 38 32 29 29 29 30 30 27 33 30 30 31 32 32 33 35
Wind_Direction
286 287 286 285 284 276 272 268 264 262 257 253 252 251 256 255 250 247 246 245 246 246 246 245 246 247 249 250 251 251 250 249 247 246 250 249 246 248 245 242 238 236 238 240 240
284 283 284 283 282 283 278 268 265 261 256 255 253 251 252 256 254 246 241 239 240 240 241 241 241 243 246 247 248 250 250 249 249 248 248 249 246 244 246 243 244 237 237 237 239
284 282 284 284 282 277 278 277 269 262 258 253 252 251 249 252 250 248 237 237 240 238 237 240 240 242 244 245 248 249 250 249 250 249 248 248 247 246 244 245 245 245 240 241 240
277 279 279 276 282 279 272 271 271 268 260 256 251 247 246 242 245 242 239 235 236 238 237 238 239 238 238 240 244 246 248 253 251 249 247 248 246 248 248 248 250 248 246 243 242
274 272 269 270 268 271 275 267 263 263 263 257 254 244 244 239 239 237 237 236 231 234 237 236 236 234 230 230 235 243 246 250 252 257 259 259 256 254 252 251 252 252 250 247 244
274 268 267 267 266 260 267 267 265 259 255 258 253 251 240 239 236 238 237 235 234 233 236 233 228 228 226 229 228 240 245 241 241 251 271 271 267 276 263 257 261 260 258 251 249
286 282 275 266 269 259 257 259 261 262 255 250 252 249 246 238 236 234 238 237 234 233 234 231 229 229 233 233 232 237 243 240 245 256 265 267 270 266 275 278 265 258 260 258 253
282 283 282 269 256 265 258 254 249 258 255 253 250 248 246 241 235 234 233 236 234 234 232 231 234 232 233 235 236 240 239 239 246 258 262 268 271 271 275 270 265 263 259 260 261
283 282 280 276 272 259 266 250 249 248 253 250 253 249 245 242 238 235 232 233 233 233 232 231 234 234 235 235 235 234 238 242 248 253 261 266 270 273 276 279 271 266 263 257 253
284 282 281 276 271 261 253 246 245 244 244 242 243 244 244 240 239 236 234 232 232 231 232 232 234 235 235 234 236 235 237 240 246 256 261 267 266 270 273 279 278 267 267 262 255
284 283 281 279 272 270 264 251 249 248 244 240 239 239 236 237 235 234 231 231 231 230 231 231 235 235 233 233 234 238 238 244 247 256 265 270 275 270 274 275 275 267 268 265 257
287 284 280 275 269 265 262 262 261 258 248 240 239 236 235 233 232 231 230 229 231 229 230 232 234 235 234 235 234 239 242 247 251 256 259 268 273 276 274 272 271 267 262 264 259
283 279 271 263 260 259 259 263 264 265 263 248 242 239 238 231 228 228 227 225 226 228 228 230 229 233 234 236 236 241 243 248 252 256 263 269 270 273 274 273 273 271 264 260 260
277 267 258 254 254 257 259 264 264 265 267 259 248 240 237 233 225 226 226 223 223 227 226 228 228 231 234 237 238 242 245 248 251 256 264 269 272 266 271 273 270 269 269 260 254
272 263 254 254 255 257 260 263 261 261 265 263 255 238 233 233 223 222 224 224 222 225 228 229 231 232 234 237 238 242 245 249 254 259 263 267 273 272 275 272 266 264 264 261 253
267 262 255 250 253 258 259 256 255 251 255 257 254 237 232 231 225 218 220 221 219 222 225 227 227 228 231 234 236 238 243 248 253 257 261 264 272 281 285 269 259 255 255 258 253
259 254 255 248 247 252 251 249 246 245 251 249 244 240 230 226 228 221 218 220 219 220 223 225 225 228 229 231 235 239 242 246 249 254 260 258 266 285 290 279 265 254 252 253 253
263 252 244 249 248 242 243 244 240 244 242 246 240 234 226 224 224 217 221 217 216 218 222 227 226 226 229 231 235 238 240 244 248 250 255 254 263 281 292 283 270 258 255 255 255
260 257 242 237 248 238 236 234 240 240 240 233 235 228 227 224 221 214 219 216 216 218 223 225 226 224 226 229 232 236 239 241 245 249 251 253 259 269 288 288 278 264 255 254 254
254 255 234 225 237 240 231 239 237 231 238 229 233 237 232 224 218 208 213 215 216 218 221 225 229 227 228 228 229 232 231 236 240 245 248 251 256 266 277 286 286 279 273 268 262
250 252 223 211 230 234 231 233 233 232 233 226 224 229 228 229 220 206 205 208 214 217 220 223 227 227 226 227 228 230 231 235 239 243 245 250 254 265 272 279 284 283 280 276 274
247 238 228 228 219 234 227 222 227 226 230 231 228 221 219 216 222 213 199 201 205 210 217 220 223 222 221 221 224 226 226 228 233 240 244 250 256 263 269 274 279 279 280 279 276
239 242 233 223 217 225 222 220 228 227 219 226 234 229 205 222 215 216 207 198 200 203 204 206 212 214 217 219 220 223 225 231 237 240 242 249 259 263 268 274 276 275 276 276 277
211 245 205 191 223 213 219 222 227 216 216 222 220 218 206 214 221 219 201 199 201 205 203 203 209 212 217 224 225 228 230 231 235 238 244 249 255 263 267 273 275 276 275 276 279
219 194 203 202 213 213 218 221 218 223 220 223 221 211 213 200 217 229 211 203 193 197 207 205 208 209 213 218 219 221 223 228 235 238 242 246 256 259 265 268 273 272 273 276 278
209 203 227 209 208 209 218 215 217 221 215 212 211 211 207 210 202 230 233 234 204 199 202 203 205 209 213 218 222 225 228 233 238 245 249 250 253 263 264 271 271 271 271 275 279
212 205 191 192 199 220 215 214 211 217 211 208 207 215 214 209 213 220 213 212 215 205 204 206 210 210 214 219 224 228 231 236 240 244 249 253 254 260 269 272 273 274 276 276 278
Height
5741 5740 5739 5739 5739 5738 5738 5738 5737 5738 5738 5738 5739 5740 5741 5743 5743 5745 5747 5749 5749 5750 5752 5754 5755 5756 5757 5759 5761 5761 5763 5766 5767 5767 5769 5772 5775 5774 5777 5778 5783 5785 5787 5788 5790
5733 5732 5732 5731 5730 5731 5731 5730 5731 5731 5730 5731 5732 5733 5734 5736 5738 5739 5742 5743 5744 5745 5747 5749 5749 5749 5751 5754 5755 5755 5757 5758 5759 5761 5762 5765 5767 5767 5769 5770 5772 5778 5779 5781 5783
5725 5724 5723 5723 5722 5721 5722 5723 5723 5723 5723 5723 5724 5726 5727 5730 5733 5733 5735 5737 5739 5741 5742 5743 5743 5744 5746 5747 5748 5750 5752 5751 5752 5754 5754 5756 5758 5759 5760 5761 5765 5768 5772 5774 5776
5716 5714 5713 5712 5713 5713 5711 5713 5714 5715 5715 5716 5716 5718 5720 5723 5728 5727 5729 5732 5734 5736 5736 5737 5738 5740 5741 5742 5743 5745 5744 5746 5746 5747 5747 5747 5750 5751 5752 5755 5756 5759 5763 5767 5768
5707 5705 5703 5702 5701 5701 5703 5702 5703 5705 5707 5707 5708 5709 5713 5716 5718 5721 5723 5726 5727 5729 5731 5732 5734 5735 5736 5737 5739 5739 5740 5740 5740 5740 5741 5743 5743 5744 5744 5747 5748 5749 5752 5756 5758
5693 5692 5691 5690 5689 5690 5690 5691 5692 5693 5695 5698 5699 5702 5704 5708 5709 5712 5716 5718 5720 5723 5725 5727 5729 5730 5731 5732 5734 5734 5736 5736 5737 5736 5737 5738 5738 5739 5738 5741 5743 5743 5744 5746 5749
5675 5674 5676 5677 5675 5676 5679 5678 5680 5681 5683 5685 5688 5691 5696 5697 5700 5703 5708 5711 5714 5716 5719 5722 5723 5725 5727 5728 5729 5729 5731 5732 5732 5732 5733 5732 5734 5734 5733 5736 5737 5737 5737 5738 5741
5662 5660 5659 5659 5661 5663 5664 5665 5667 5668 5671 5673 5676 5680 5686 5689 5691 5695 5698 5702 5707 5709 5711 5715 5719 5720 5721 5724 5724 5725 5727 5727 5728 5728 5728 5729 5729 5729 5728 5729 5730 5730 5731 5733 5734
5648 5646 5645 5644 5644 5645 5648 5650 5653 5654 5657 5660 5664 5669 5675 5679 5683 5684 5688 5693 5697 5700 5704 5708 5711 5715 5715 5718 5719 5720 5721 5722 5723 5724 5724 5724 5724 5723 5722 5723 5723 5723 5724 5726 5728
5631 5629 5629 5628 5628 5629 5630 5633 5636 5637 5641 5645 5650 5657 5662 5667 5672 5674 5678 5683 5688 5691 5695 5700 5704 5708 5710 5712 5714 5715 5715 5717 5718 5719 5718 5719 5719 5718 5717 5716 5715 5715 5716 5718 5720
5614 5612 5611 5612 5612 5610 5613 5615 5620 5621 5624 5630 5635 5639 5646 5653 5660 5664 5667 5672 5677 5681 5686 5690 5696 5702 5702 5703 5707 5709 5710 5712 5713 5713 5713 5713 5712 5713 5711 5711 5710 5709 5709 5709 5711
5593 5592 5592 5592 5592 5593 5593 5594 5594 5598 5602 5610 5613 5621 5629 5637 5645 5651 5657 5662 5667 5672 5675 5683 5690 5691 5696 5697 5700 5702 5704 5706 5707 5707 5708 5708 5707 5705 5707 5706 5703 5704 5704 5703 5704
5571 5571 5572 5571 5570 5574 5577 5578 5577 5576 5576 5591 5597 5600 5611 5621 5630 5637 5645 5648 5655 5660 5667 5674 5679 5682 5686 5689 5693 5695 5698 5699 5701 5700 5701 5702 5703 5700 5700 5699 5698 5697 5697 5697 5698
5548 5549 5549 5549 5552 5556 5561 5561 5562 5563 5558 5570 5582 5585 5593 5603 5612 5624 5631 5637 5643 5651 5656 5661 5667 5673 5678 5681 5685 5688 5690 5690 5692 5694 5695 5695 5696 5695 5694 5692 5691 5691 5691 5691 5692
5524 5526 5529 5528 5533 5540 5546 5547 5548 5551 5543 5556 5565 5572 5579 5586 5603 5611 5619 5625 5633 5638 5647 5654 5659 5664 5669 5673 5676 5680 5681 5683 5685 5687 5688 5689 5687 5690 5687 5685 5683 5684 5685 5685 5686
5502 5504 5508 5512 5517 5527 5530 5534 5537 5538 5532 5543 5551 5558 5566 5575 5585 5596 5603 5612 5620 5625 5634 5640 5647 5652 5659 5664 5668 5670 5674 5676 5678 5679 5680 5682 5681 5683 5678 5676 5676 5678 5678 5678 5679
5478 5483 5491 5492 5506 5510 5516 5520 5522 5518 5529 5538 5543 5547 5554 5563 5570 5582 5592 5600 5610 5615 5623 5630 5636 5643 5648 5653 5658 5662 5666 5668 5670 5671 5674 5675 5675 5676 5672 5668 5670 5671 5672 5672 5673
5457 5461 5470 5478 5486 5495 5502 5505 5503 5513 5523 5528 5534 5537 5544 5550 5556 5568 5578 5588 5597 5605 5613 5621 5628 5634 5639 5644 5651 5653 5657 5660 5661 5664 5667 5668 5669 5670 5666 5664 5663 5664 5664 5665 5666
5441 5444 5453 5466 5473 5481 5487 5486 5493 5507 5515 5521 5525 5529 5535 5541 5549 5555 5566 5576 5586 5595 5604 5611 5616 5623 5629 5634 5639 5643 5648 5653 5654 5655 5658 5661 5663 5665 5663 5661 5660 5660 5659 5659 5661
5430 5433 5441 5452 5459 5467 5473 5475 5488 5499 5504 5512 5517 5522 5528 5534 5540 5545 5554 5567 5575 5584 5591 5600 5606 5613 5619 5623 5628 5633 5641 5642 5644 5647 5650 5653 5656 5657 5658 5658 5657 5656 5656 5656 5656
5421 5425 5434 5439 5445 5451 5458 5468 5480 5491 5496 5504 5511 5515 5522 5527 5533 5537 5546 5558 5564 5573 5580 5589 5597 5603 5608 5614 5620 5625 5630 5634 5638 5639 5642 5645 5649 5650 5652 5652 5653 5652 5651 5651 5651
5412 5417 5426 5429 5438 5443 5454 5462 5473 5483 5489 5493 5500 5506 5513 5520 5526 5531 5540 5545 5554 5561 5571 5579 5585 5592 5600 5604 5609 5614 5619 5623 5627 5632 5636 5638 5643 5642 5644 5646 5648 5647 5646 5645 5645
5408 5414 5417 5420 5426 5436 5448 5456 5464 5473 5482 5486 5494 5500 5506 5513 5519 5525 5531 5537 5545 5554 5562 5569 5575 5582 5588 5595 5599 5605 5612 5617 5621 5624 5627 5632 5637 5634 5636 5639 5640 5640 5640 5640 5640
5402 5406 5410 5415 5426 5432 5440 5447 5456 5465 5474 5480 5489 5492 5500 5508 5514 5520 5526 5533 5539 5546 5552 5558 5567 5576 5585 5591 5597 5602 5607 5609 5611 5615 5622 5625 5627 5628 5628 5631 5632 5632 5631 5631 5632
5397 5402 5407 5413 5421 5427 5434 5441 5450 5458 5468 5474 5481 5488 5495 5501 5508 5515 5522 5527 5533 5539 5547 5554 5561 5569 5575 5580 5586 5591 5596 5600 5604 5610 5612 5619 5619 5619 5622 5623 5625 5624 5623 5623 5623
5394 5399 5404 5410 5417 5422 5428 5435 5444 5452 5461 5469 5478 5484 5488 5495 5504 5510 5515 5521 5527 5533 5539 5547 5554 5560 5567 5572 5578 5583 5589 5593 5598 5603 5606 5609 5611 5612 5611 5616 5616 5616 5615 5615 5614
5391 5396 5403 5408 5413 5418 5425 5431 5439 5446 5454 5462 5469 5474 5482 5491 5495 5502 5508 5513 5519 5525 5531 5539 5546 5553 5559 5565 5570 5576 5584 5588 5592 5595 5598 5601 5604 5602 5606 5606 5606 5606 5606 5606 5605